Mobile, AL

1:07 PM CDT on June 26, 2017 (GMT -0500)
Mobile Regional

Weather History for KMOB - November, 2012

Change the Weather History Date:

Friday, November 23, 2012

  Actual Average Record
Temperature  
Mean Temperature 58 °F 58 °F  
Max Temperature 75 °F 68 °F 83 °F (1973)
Min Temperature 41 °F 47 °F 25 °F (1956)
Degree Days  
Heating Degree Days 7 8  
Month to date heating degree days 174 136  
Since 1 July heating degree days 229 191  
Cooling Degree Days 0 1  
Month to date cooling degree days 15 35  
Year to date cooling degree days 2697 2497  
Growing Degree Days 8 (Base 50)    
Moisture  
Dew Point 48 °F    
Average Humidity 71    
Maximum Humidity 100    
Minimum Humidity 41    
Precipitation  
Precipitation 0.00 in 0.17 in 2.46 in (1948)
Month to date precipitation 0.29 3.97  
Year to date precipitation 64.48 59.93  
Snow  
Snow 0.00 in 0.00 in 0.00 in (2002)
Month to date snowfall 0.0 0.0  
Since 1 July snowfall 0.0 0.0  
Snow Depth 0.00 in    
Sea Level Pressure  
Sea Level Pressure 30.21 in    
Wind  
Wind Speed 6 mph (NW)    
Max Wind Speed 15 mph    
Max Gust Speed 21 mph    
Visibility 7 miles    
Events Fog    
T = Trace of Precipitation, MM = Missing Value Source: NWS Daily Summary

Daily Weather History Graph

Daily Weather History Graph

Search for Another Location

Airport or City:

Trip Planner

Search our weather history database for the weather conditions in past years. The results will help you decide how hot, cold, wet, or windy it might be!

Date:

Astronomy

Nov. 23, 2012 Rise Set
Actual Time 6:26 AM CST 4:52 PM CST
Civil Twilight 6:00 AM CST 5:18 PM CST
Nautical Twilight 5:31 AM CST 5:47 PM CST
Astronomical Twilight 5:02 AM CST 6:16 PM CST
Moon 1:52 PM CST (11/23) 2:01 AM CST (11/23)
Length of Visible Light 11h 17m
Length of Day
10h 25m
Waxing Gibbous, 80% of the Moon is Illuminated
Nov 23
Waxing Gibbous
Nov 28
Full
Dec 6
Last Quarter
Dec 13
New
Dec 19
First Quarter

Hourly Weather History & Observations

Time (CST) Temp. Dew Point Humidity Pressure Visibility Wind Dir Wind Speed Gust Speed Precip Events Conditions
12:48 AM 48.2 °F 46.4 °F 93% 30.22 in 1.8 mi Calm Calm - N/A   Scattered Clouds
12:56 AM 48.9 °F 46.0 °F 90% 30.22 in 1.8 mi Calm Calm - N/A   Scattered Clouds
1:50 AM 48.2 °F 44.6 °F 87% 30.22 in 2.0 mi Calm Calm - N/A   Mostly Cloudy
1:56 AM 48.0 °F 46.0 °F 93% 30.21 in 2.0 mi Calm Calm - N/A   Mostly Cloudy
2:56 AM 45.0 °F 43.0 °F 93% 30.22 in 2.0 mi Calm Calm - N/A   Mostly Cloudy
3:03 AM 44.6 °F 42.8 °F 93% 30.22 in 0.2 mi Calm Calm - N/A Fog Fog
3:11 AM 44.6 °F 42.8 °F 93% 30.22 in 1.0 mi Calm Calm - N/A   Mostly Cloudy
3:56 AM 46.0 °F 44.1 °F 93% 30.22 in 1.0 mi Calm Calm - N/A   Mostly Cloudy
4:03 AM 44.6 °F 44.6 °F 100% 30.22 in 0.2 mi Calm Calm - N/A Fog Fog
4:56 AM 46.0 °F 44.1 °F 93% 30.23 in 0.2 mi Calm Calm - N/A Fog Fog
5:15 AM 46.4 °F 44.6 °F 93% 30.23 in 3.0 mi Calm Calm - N/A   Mostly Cloudy
5:36 AM 44.6 °F 42.8 °F 93% 30.24 in 3.0 mi Calm Calm - N/A   Scattered Clouds
5:56 AM 44.1 °F 42.1 °F 93% 30.24 in 3.0 mi Calm Calm - N/A   Scattered Clouds
6:56 AM 45.0 °F 45.0 °F 100% 30.25 in 4.0 mi Calm Calm - N/A   Mostly Cloudy
7:56 AM 53.1 °F 52.0 °F 96% 30.27 in 8.0 mi Calm Calm - N/A   Partly Cloudy
8:56 AM 62.1 °F 51.1 °F 67% 30.27 in 10.0 mi WNW 4.6 mph - N/A   Partly Cloudy
9:56 AM 68.0 °F 50.0 °F 52% 30.27 in 10.0 mi NW 6.9 mph - N/A   Partly Cloudy
10:56 AM 72.0 °F 46.9 °F 41% 30.25 in 10.0 mi SW 6.9 mph - N/A   Scattered Clouds
11:56 AM 73.0 °F 48.9 °F 42% 30.21 in 10.0 mi WNW 9.2 mph 16.1 mph N/A   Mostly Cloudy
12:56 PM 73.0 °F 48.9 °F 42% 30.17 in 10.0 mi West 10.4 mph - N/A   Mostly Cloudy
1:56 PM 73.0 °F 50.0 °F 44% 30.15 in 10.0 mi NW 9.2 mph - N/A   Mostly Cloudy
2:56 PM 73.9 °F 50.0 °F 43% 30.14 in 10.0 mi NW 8.1 mph - N/A   Scattered Clouds
3:56 PM 71.1 °F 50.0 °F 47% 30.14 in 10.0 mi NW 5.8 mph - N/A   Scattered Clouds
4:56 PM 68.0 °F 52.0 °F 56% 30.15 in 10.0 mi NW 9.2 mph - N/A   Mostly Cloudy
5:56 PM 64.9 °F 53.1 °F 65% 30.16 in 10.0 mi WNW 4.6 mph - N/A   Scattered Clouds
6:56 PM 63.0 °F 53.1 °F 70% 30.17 in 10.0 mi WNW 3.5 mph - N/A   Mostly Cloudy
7:56 PM 63.0 °F 54.0 °F 72% 30.18 in 10.0 mi NW 9.2 mph - N/A   Mostly Cloudy
8:56 PM 62.1 °F 54.0 °F 75% 30.20 in 10.0 mi NNW 13.8 mph 18.4 mph N/A   Mostly Cloudy
9:03 PM 62.6 °F 53.6 °F 72% 30.21 in 10.0 mi NNW 10.4 mph - N/A   Mostly Cloudy
9:56 PM 61.0 °F 52.0 °F 72% 30.20 in 10.0 mi NNW 11.5 mph 19.6 mph N/A   Mostly Cloudy
10:56 PM 57.9 °F 51.1 °F 78% 30.20 in 8.0 mi NNW 10.4 mph - N/A   Mostly Cloudy
11:03 PM 57.2 °F 51.8 °F 82% 30.21 in 10.0 mi NNW 9.2 mph - N/A   Scattered Clouds
11:56 PM 55.9 °F 48.0 °F 75% 30.20 in 10.0 mi NNW 11.5 mph - N/A   Scattered Clouds